Wind_Speed
56 55 57 59 55 51 48 51 52 54 52 52 51 48 49 51 52 53 56 58 60 63 64 66 69 69 68 68 72 72 74 76
55 56 60 61 57 52 51 52 52 55 53 53 52 53 53 52 55 58 58 60 61 62 65 67 68 69 72 76 77 76 78 79
56 57 59 60 58 53 50 53 54 54 54 56 57 58 59 60 61 61 62 64 64 68 70 72 74 78 81 80 80 81 83 85
60 59 60 61 58 53 52 51 54 55 57 59 60 61 62 62 62 62 63 65 68 72 75 78 79 81 81 82 84 85 88 90
60 60 62 62 59 56 56 53 54 57 57 56 58 60 62 64 66 68 68 69 74 78 79 80 81 83 85 87 88 90 93 97
67 65 63 61 61 62 62 62 61 60 61 61 61 62 62 64 66 67 71 76 79 81 83 84 85 89 91 93 94 97 99 103
68 68 68 69 68 70 72 71 68 67 66 65 66 66 65 66 68 72 76 79 83 87 89 91 93 96 98 99 100 102 107 110
76 75 75 76 77 77 76 73 70 69 67 65 68 68 67 71 73 77 81 82 85 89 91 93 94 95 98 100 101 104 100 98
80 83 83 82 82 82 80 79 79 75 73 73 73 76 77 77 77 80 84 84 87 91 92 93 93 95 91 96 96 91 95 100
89 85 85 85 86 85 83 80 79 81 81 81 81 79 80 80 83 85 87 86 89 91 93 95 94 93 99 96 94 102 102 112
91 90 91 89 87 87 85 85 86 87 88 88 86 85 83 84 85 89 90 92 94 92 90 94 92 92 96 93 94 103 115 120
95 96 94 94 93 92 90 91 92 92 91 92 92 88 90 87 88 89 93 95 97 92 95 92 93 100 102 96 102 111 119 106
101 95 97 99 95 91 91 90 90 93 94 94 89 91 92 90 90 92 93 96 96 97 97 95 97 103 108 110 110 119 108 98
107 101 101 101 100 96 96 89 92 94 92 92 91 94 95 93 93 94 95 96 95 98 100 104 110 110 110 114 115 113 111 94
109 104 107 107 106 106 96 90 93 92 90 96 95 95 99 100 98 93 94 101 98 102 105 109 114 113 120 111 107 117 99 84
113 109 105 108 109 102 95 95 93 98 95 91 93 98 102 106 103 97 99 100 105 107 115 120 121 123 121 113 110 94 87 75
112 116 117 115 106 107 102 94 94 95 91 93 95 98 104 105 99 104 103 108 113 119 120 120 125 121 124 109 92 82 74 64
100 107 114 110 102 98 97 95 92 96 98 100 100 104 105 106 104 110 118 119 120 119 123 126 128 115 102 90 83 72 62 57
90 92 96 102 105 107 107 103 107 107 106 107 107 107 110 114 120 122 124 123 119 123 128 126 113 96 91 81 74 62 54 51
Wind_Direction
282 281 278 278 283 282 280 279 278 278 276 274 277 278 280 280 280 282 282 282 282 284 284 284 288 289 287 287 290 290 290 291
279 275 274 273 279 281 279 277 276 278 275 272 273 273 277 278 279 280 281 283 283 285 286 287 287 286 285 287 288 289 288 290
273 269 272 272 276 279 278 277 275 273 275 273 271 273 275 275 275 278 280 281 282 284 283 283 285 287 287 287 287 288 288 287
274 273 273 269 273 275 276 278 278 278 278 276 275 276 278 278 278 277 278 280 283 283 284 286 286 286 286 286 286 287 288 289
274 274 274 272 272 275 277 277 277 279 280 280 281 282 281 280 280 279 278 279 280 282 285 286 286 287 287 286 287 288 289 290
276 277 276 274 273 271 274 275 278 278 280 280 279 280 283 283 283 281 279 279 280 282 283 284 285 285 286 286 287 288 289 288
273 274 275 276 275 274 276 278 281 281 281 282 281 282 283 283 282 281 280 279 280 280 282 283 284 285 286 288 289 290 290 292
274 275 276 276 275 276 277 279 279 280 282 280 281 283 282 282 285 286 284 283 282 282 282 284 285 286 287 290 291 291 292 293
273 274 274 274 275 275 278 280 283 282 281 281 280 282 283 284 283 283 285 284 283 283 284 286 287 287 290 291 292 293 293 299
278 276 276 275 275 276 277 279 279 280 282 282 281 280 282 281 282 282 283 285 286 286 286 286 287 291 291 296 297 296 303 307
273 273 273 272 274 274 276 276 276 278 279 281 280 280 281 281 281 281 282 283 287 287 290 288 290 293 298 299 301 306 308 304
271 273 271 271 275 276 277 278 277 279 278 279 278 279 281 282 282 280 282 284 288 290 292 291 292 295 302 302 304 307 307 304
275 270 268 273 275 275 273 278 277 278 279 278 278 279 283 284 284 282 281 284 286 291 295 297 296 297 301 302 305 305 313 306
277 275 271 274 274 274 279 275 276 275 277 277 276 276 279 281 286 281 281 285 292 290 297 300 302 302 302 299 302 310 313 305
274 273 270 272 275 276 275 275 272 272 273 275 273 275 276 279 289 284 287 284 295 295 297 298 299 299 302 306 310 312 307 305
270 269 268 270 272 272 272 276 271 272 279 276 273 273 276 280 286 287 294 291 296 296 296 298 299 302 306 309 310 307 304 302
262 264 267 269 269 269 274 272 267 274 273 272 274 276 278 278 284 291 290 293 293 294 296 300 299 303 303 307 305 302 301 299
260 259 260 265 266 264 267 270 271 273 273 273 278 276 280 282 284 285 288 291 292 295 298 299 298 300 305 305 302 301 299 296
260 258 257 258 260 261 264 266 267 269 270 273 275 277 279 281 283 284 287 290 292 292 294 297 298 300 302 301 299 301 296 292
Height
10706 10703 10700 10697 10699 10701 10701 10698 10698 10697 10696 10695 10694 10693 10693 10691 10690 10688 10687 10684 10682 10680 10678 10675 10672 10668 10665 10662 10660 10657 10653 10648
10692 10690 10686 10685 10688 10690 10690 10687 10685 10685 10685 10684 10683 10682 10681 10680 10678 10676 10673 10670 10668 10665 10663 10659 10657 10653 10650 10646 10642 10639 10636 10632
10676 10674 10672 10671 10676 10679 10678 10675 10673 10672 10672 10671 10670 10669 10668 10666 10664 10662 10660 10657 10654 10651 10647 10643 10640 10637 10632 10627 10622 10618 10615 10611
10661 10662 10660 10658 10663 10665 10665 10662 10660 10659 10659 10657 10656 10654 10653 10651 10649 10647 10644 10641 10638 10633 10629 10624 10621 10617 10612 10607 10602 10596 10590 10585
10646 10648 10645 10646 10648 10649 10649 10648 10647 10646 10644 10643 10641 10639 10637 10634 10632 10630 10627 10623 10619 10614 10609 10605 10601 10596 10591 10586 10580 10575 10568 10561
10632 10633 10632 10632 10632 10631 10630 10631 10632 10631 10629 10626 10624 10623 10621 10618 10615 10612 10607 10603 10598 10594 10589 10585 10581 10575 10569 10563 10558 10551 10544 10535
10615 10615 10615 10613 10612 10612 10611 10613 10614 10613 10611 10609 10607 10604 10602 10599 10597 10593 10589 10584 10579 10574 10569 10564 10558 10553 10547 10540 10534 10527 10519 10510
10599 10598 10598 10597 10594 10592 10592 10593 10593 10593 10592 10590 10587 10585 10583 10580 10578 10574 10569 10564 10558 10554 10549 10542 10537 10531 10524 10516 10509 10500 10491 10480
10580 10579 10580 10578 10575 10574 10574 10575 10574 10573 10571 10570 10568 10565 10563 10560 10556 10553 10548 10543 10538 10532 10527 10521 10514 10507 10500 10492 10484 10474 10463 10451
10560 10560 10560 10559 10557 10556 10557 10557 10555 10553 10553 10551 10548 10545 10543 10539 10535 10531 10526 10522 10516 10510 10504 10498 10492 10485 10477 10469 10459 10449 10435 10423
10542 10539 10538 10538 10537 10537 10538 10537 10536 10534 10533 10531 10527 10524 10521 10517 10513 10509 10505 10500 10494 10489 10481 10475 10469 10460 10452 10443 10432 10421 10412 10396
10518 10517 10514 10515 10517 10517 10515 10515 10514 10513 10511 10508 10503 10500 10496 10493 10489 10485 10482 10478 10473 10465 10460 10452 10445 10436 10428 10417 10406 10396 10386 10364
10491 10491 10489 10488 10490 10491 10491 10491 10490 10489 10487 10483 10479 10475 10471 10467 10464 10462 10459 10454 10449 10443 10436 10428 10420 10412 10403 10392 10382 10374 10353 10337
10458 10462 10463 10463 10464 10463 10465 10466 10466 10464 10461 10457 10455 10452 10448 10444 10442 10439 10436 10431 10426 10419 10411 10402 10393 10386 10378 10367 10358 10341 10328 10315
10429 10434 10436 10437 10436 10437 10441 10443 10442 10440 10437 10434 10432 10429 10424 10421 10418 10413 10412 10407 10400 10395 10385 10378 10369 10361 10351 10337 10325 10317 10304 10295
10398 10403 10409 10411 10411 10413 10417 10417 10416 10414 10412 10409 10407 10403 10400 10396 10392 10388 10385 10382 10377 10371 10361 10354 10344 10333 10321 10312 10305 10296 10285 10277
10374 10377 10380 10384 10387 10390 10392 10392 10391 10390 10388 10382 10381 10377 10374 10372 10369 10366 10361 10359 10353 10347 10337 10331 10321 10309 10303 10295 10286 10276 10268 10261
10345 10353 10359 10359 10363 10364 10367 10365 10364 10365 10364 10362 10360 10350 10348 10348 10345 10343 10339 10335 10330 10323 10315 10306 10300 10288 10280 10273 10265 10258 10251 10245
10316 10324 10331 10334 10339 10340 10346 10349 10342 10340 10341 10339 10333 10327 10328 10326 10324 10321 10316 10313 10306 10301 10294 10287 10275 10269 10262 10254 10245 10242 10236 10231